EW9394 Weather Reports


Display with metric or nautical units.
time (UTC)temp
F
wind
direction
speed
MPH
gust
MPH
rain 1hr
in
rain 24hr
in
rain mn
in
humidity
%
barometer
mb
20260510052502 75 170 1.0 2.0 0.00 0.00 0.00 86 1010.8
20260510051958 76 119 3.0 3.0 0.00 0.00 0.00 85 1011.0
20260510051454 76 155 1.0 2.0 0.00 0.00 0.00 84 1011.2
20260510050951 76 153 2.0 3.0 0.00 0.00 0.00 84 1010.9
20260510050448 76 142 3.0 3.0 0.00 0.00 0.00 84 1011.0
20260510045945 76 131 1.0 2.0 0.00 0.00 0.00 84 1010.9
20260510045442 76 161 1.0 2.0 0.00 0.00 0.00 83 1010.7
20260510044939 76 137 2.0 3.0 0.00 0.00 0.00 82 1010.7
20260510044436 76 143 2.0 2.0 0.00 0.00 0.00 81 1010.6
20260510043932 77 106 2.0 3.0 0.00 0.00 0.00 80 1010.5
20260510043428 77 128 3.0 3.0 0.00 0.00 0.00 78 1010.6
20260510042927 77 140 2.0 2.0 0.00 0.00 0.00 77 1010.4
20260510042422 77 137 3.0 5.0 0.00 0.00 0.00 76 1010.5
20260510041918 77 156 2.0 2.0 0.00 0.00 0.00 74 1010.6
20260510041416 77 144 1.0 1.0 0.00 0.00 0.00 74 1010.8
20260510040913 77 154 0.0 0.0 0.00 0.00 0.00 74 1010.8
20260510040410 77 154 1.0 2.0 0.00 0.00 0.00 74 1010.8
20260510035905 77 165 1.0 1.0 0.00 0.00 0.00 73 1010.8
20260510035402 77 161 1.0 2.0 0.00 0.00 0.00 73 1011.0
20260510034856 78 161 1.0 1.0 0.00 0.00 0.00 72 1010.9
20260510034356 78 142 1.0 2.0 0.00 0.00 0.00 71 1010.8
20260510033851 77 168 0.0 0.0 0.00 0.00 0.00 72 1010.8
20260510033348 78 166 1.0 1.0 0.00 0.00 0.00 71 1010.6
20260510032844 78 164 1.0 1.0 0.00 0.00 0.00 71 1010.7
20260510032341 78 158 1.0 1.0 0.00 0.00 0.00 70 1010.8
20260510031837 78 163 0.0 1.0 0.00 0.00 0.00 70 1010.8
20260510031332 78 158 1.0 2.0 0.00 0.00 0.00 71 1010.8
20260510030832 78 167 0.0 0.0 0.00 0.00 0.00 71 1010.7
20260510030329 78 172 0.0 0.0 0.00 0.00 0.00 71 1010.8
20260510025826 78 150 0.0 0.0 0.00 0.00 0.00 71 1010.8
20260510025324 78 150 0.0 0.0 0.00 0.00 0.00 70 1010.8
20260510024820 78 151 0.0 0.0 0.00 0.00 0.00 70 1010.9
20260510024318 79 145 0.0 0.0 0.00 0.00 0.00 70 1010.8
20260510023814 79 146 0.0 0.0 0.00 0.00 0.00 69 1010.8
20260510023310 79 129 1.0 1.0 0.00 0.00 0.00 68 1010.8
20260510022807 79 126 0.0 1.0 0.00 0.00 0.00 68 1010.6
20260510022307 79 141 0.0 1.0 0.00 0.00 0.00 68 1010.3
20260510021806 80 141 0.0 1.0 0.00 0.00 0.00 67 1010.5
20260510021304 80 117 0.0 0.0 0.00 0.00 0.00 66 1010.6
20260510020800 80 114 1.0 1.0 0.00 0.00 0.00 66 1010.2
20260510020300 80 135 1.0 1.0 0.00 0.00 0.00 66 1010.4
20260510015756 80 137 0.0 1.0 0.00 0.00 0.00 65 1010.2
20260510015252 81 127 0.0 1.0 0.00 0.00 0.00 64 1010.3
20260510014747 81 104 1.0 1.0 0.00 0.00 0.00 63 1010.2
20260510014245 81 125 1.0 1.0 0.00 0.00 0.00 63 1010.4
20260510013741 81 103 1.0 1.0 0.00 0.00 0.00 62 1010.3
20260510013236 82 115 0.0 1.0 0.00 0.00 0.00 61 1010.0
20260510012731 82 93 1.0 1.0 0.00 0.00 0.00 61 1010.0
20260510012227 82 131 0.0 0.0 0.00 0.00 0.00 61 1009.9
20260510011727 82 148 0.0 0.0 0.00 0.00 0.00 60 1009.7
20260510011222 83 130 0.0 1.0 0.00 0.00 0.00 58 1009.8
20260510010719 83 97 2.0 2.0 0.00 0.00 0.00 58 1009.6
20260510010216 83 90 1.0 1.0 0.00 0.00 0.00 57 1009.7
20260510005713 84 116 0.0 0.0 0.00 0.00 0.00 56 1009.7
20260510005209 84 78 1.0 1.0 0.00 0.00 0.00 55 1009.5
20260510004707 84 99 1.0 1.0 0.00 0.00 0.00 55 1009.5
20260510004204 84 145 0.0 1.0 0.00 0.00 0.00 54 1009.7
20260510003702 85 90 1.0 1.0 0.00 0.00 0.00 53 1009.7
20260510003158 85 75 1.0 1.0 0.00 0.00 0.00 51 1009.5
20260510002657 85 67 1.0 2.0 0.00 0.00 0.00 51 1009.4
20260510002155 85 107 0.0 1.0 0.00 0.00 0.00 50 1009.6
20260510001651 86 117 1.0 1.0 0.00 0.00 0.00 50 1009.5
20260510001150 87 110 1.0 1.0 0.00 0.00 0.00 50 1009.6
20260510000650 86 109 1.0 1.0 0.00 0.00 0.00 51 1009.7
20260510000148 86 140 1.0 2.0 0.00 0.00 0.00 51 1009.6
20260509235644 86 135 0.0 1.0 0.00 0.00 0.00 51 1009.6
20260509235141 87 79 1.0 1.0 0.00 0.00 0.00 50 1009.5
20260509234637 87 146 0.0 0.0 0.00 0.00 0.00 51 1009.4
20260509234135 87 166 0.0 1.0 0.00 0.00 0.00 50 1009.4
20260509233633 87 187 0.0 0.0 0.00 0.00 0.00 51 1009.7
20260509233130 87 158 1.0 2.0 0.00 0.00 0.00 50 1009.7
20260509232626 87 167 0.0 1.0 0.00 0.00 0.00 49 1009.7
20260509232123 87 162 0.0 1.0 0.00 0.00 0.00 51 1009.5
20260509231619 87 165 0.0 0.0 0.00 0.00 0.00 50 1009.6
20260509231117 88 307 4.0 5.0 0.00 0.00 0.00 49 1009.6
20260509230614 88 299 2.0 2.0 0.00 0.00 0.00 50 1009.5
20260509230111 87 156 1.0 1.0 0.00 0.00 0.00 51 1009.6
20260509225607 87 140 0.0 1.0 0.00 0.00 0.00 51 1009.7
20260509225102 88 84 0.0 1.0 0.00 0.00 0.00 51 1009.7
20260509224557 88 88 1.0 1.0 0.00 0.00 0.00 51 1009.4
20260509224055 88 78 0.0 1.0 0.00 0.00 0.00 51 1009.5
20260509223552 87 96 1.0 1.0 0.00 0.00 0.00 52 1009.7
20260509223049 88 169 1.0 2.0 0.00 0.00 0.00 51 1009.6
20260509222545 89 112 4.0 5.0 0.00 0.00 0.00 50 1009.5
20260509222041 88 186 0.0 0.0 0.00 0.00 0.00 53 1009.2
20260509221537 88 125 1.0 1.0 0.00 0.00 0.00 54 1009.5
20260509221033 87 128 2.0 2.0 0.00 0.00 0.00 55 1009.1
20260509220529 89 68 1.0 1.0 0.00 0.00 0.00 53 1009.5
20260509220026 89 156 0.0 1.0 0.00 0.00 0.00 52 1009.5
20260509215521 89 84 1.0 1.0 0.00 0.00 0.00 53 1009.5
20260509215019 88 129 1.0 1.0 0.00 0.00 0.00 54 1009.7
20260509214516 88 113 1.0 1.0 0.00 0.00 0.00 52 1009.5
20260509214013 90 239 0.0 1.0 0.00 0.00 0.00 52 1009.7
20260509213509 89 72 1.0 2.0 0.00 0.00 0.00 53 1009.7
20260509213006 88 78 1.0 1.0 0.00 0.00 0.00 54 1009.9
20260509212503 88 186 0.0 1.0 0.00 0.00 0.00 54 1009.8
20260509211959 89 230 0.0 0.0 0.00 0.00 0.00 54 1009.9
20260509211455 89 140 0.0 1.0 0.00 0.00 0.00 54 1010.0
20260509210952 89 98 2.0 3.0 0.00 0.00 0.00 55 1010.1
20260509210448 89 57 2.0 3.0 0.00 0.00 0.00 54 1010.1
20260509205944 89 88 0.0 1.0 0.00 0.00 0.00 54 1010.1
20260509205439 88 165 0.0 0.0 0.00 0.00 0.00 56 1010.0
20260509204935 88 131 1.0 1.0 0.00 0.00 0.00 56 1010.4
20260509204426 88 133 0.0 1.0 0.00 0.00 0.00 57 1010.3
20260509203923 87 143 1.0 1.0 0.00 0.00 0.00 56 1010.4
20260509203418 88 105 2.0 3.0 0.00 0.00 0.00 58 1010.6
20260509202916 88 105 2.0 2.0 0.00 0.00 0.00 56 1010.4
20260509202412 88 166 2.0 2.0 0.00 0.00 0.00 57 1010.5
20260509201907 88 64 1.0 1.0 0.00 0.00 0.00 59 1010.7
20260509201402 87 85 1.0 2.0 0.00 0.00 0.00 60 1010.9
20260509200900 89 150 0.0 1.0 0.00 0.00 0.00 57 1010.8
20260509200359 88 79 1.0 2.0 0.00 0.00 0.00 58 1010.5
20260509195857 87 88 0.0 1.0 0.00 0.00 0.00 60 1010.6
20260509195356 87 68 0.0 1.0 0.00 0.00 0.00 61 1010.7
20260509194851 89 169 1.0 1.0 0.00 0.00 0.00 58 1010.9
20260509194347 88 90 1.0 2.0 0.00 0.00 0.00 58 1011.0
20260509193844 89 103 1.0 2.0 0.00 0.00 0.00 59 1011.0
20260509193344 88 155 0.0 1.0 0.00 0.00 0.00 60 1011.0
20260509192840 87 247 2.0 2.0 0.00 0.00 0.00 60 1010.8
20260509192336 88 267 2.0 2.0 0.00 0.00 0.00 59 1010.9
20260509191832 88 20 2.0 5.0 0.00 0.00 0.00 61 1011.1
20260509191328 87 210 3.0 5.0 0.00 0.00 0.00 62 1011.1
20260509190824 86 357 3.0 5.0 0.00 0.00 0.00 63 1011.2
20260509190321 86 253 1.0 1.0 0.00 0.00 0.00 65 1011.1
20260509185818 86 83 0.0 0.0 0.00 0.00 0.00 64 1011.2
20260509185314 86 131 1.0 1.0 0.00 0.00 0.00 64 1011.3
20260509184812 87 273 2.0 2.0 0.00 0.00 0.00 63 1011.3
20260509184309 86 248 0.0 1.0 0.00 0.00 0.00 64 1011.3
20260509183806 86 187 0.0 1.0 0.00 0.00 0.00 65 1011.2
20260509183301 86 308 3.0 5.0 0.00 0.00 0.00 64 1011.4
20260509182756 86 182 0.0 1.0 0.00 0.00 0.00 65 1011.3
20260509182254 84 243 0.0 0.0 0.00 0.00 0.00 67 1011.2
20260509181751 86 311 5.0 7.0 0.00 0.00 0.00 63 1011.3
20260509181249 86 6 1.0 2.0 0.00 0.00 0.00 64 1011.6
20260509180746 86 289 1.0 2.0 0.00 0.00 0.00 67 1011.6
20260509180242 84 291 2.0 3.0 0.00 0.00 0.00 67 1011.7
20260509175739 84 217 1.0 2.0 0.00 0.00 0.00 68 1011.8
20260509175235 85 11 4.0 6.0 0.00 0.00 0.00 66 1011.6
20260509174731 85 166 0.0 1.0 0.00 0.00 0.00 66 1011.8
20260509174226 85 21 1.0 2.0 0.00 0.00 0.00 67 1011.7
20260509173723 84 52 1.0 1.0 0.00 0.00 0.00 68 1011.8
20260509173219 84 162 2.0 3.0 0.00 0.00 0.00 67 1011.8
20260509172715 83 44 1.0 2.0 0.00 0.00 0.00 68 1011.8
20260509172211 84 242 1.0 1.0 0.00 0.00 0.00 69 1012.1
20260509171707 83 331 1.0 2.0 0.00 0.00 0.00 68 1011.9
20260509171203 82 55 1.0 2.0 0.00 0.00 0.00 69 1012.2
20260509170700 82 312 3.0 3.0 0.00 0.00 0.00 69 1012.1
20260509170156 83 17 4.0 6.0 0.00 0.00 0.00 69 1012.2
20260509165655 83 258 1.0 1.0 0.00 0.00 0.00 71 1012.0
20260509165150 82 320 3.0 5.0 0.00 0.00 0.00 70 1012.0
20260509164646 81 305 2.0 2.0 0.00 0.00 0.00 71 1012.1
20260509164142 82 256 1.0 2.0 0.00 0.00 0.00 71 1012.2
20260509163640 81 147 1.0 1.0 0.00 0.00 0.00 73 1012.2
20260509163136 80 1 1.0 2.0 0.00 0.00 0.00 74 1012.2
20260509162633 79 259 1.0 1.0 0.00 0.00 0.00 75 1012.1
20260509162129 80 296 3.0 3.0 0.00 0.00 0.00 74 1012.3
20260509161625 79 295 2.0 2.0 0.00 0.00 0.00 75 1012.0
20260509161120 79 270 4.0 5.0 0.00 0.00 0.00 75 1012.0
20260509160617 79 285 2.0 3.0 0.00 0.00 0.00 76 1012.3
20260509160112 79 245 0.0 1.0 0.00 0.00 0.00 76 1012.3
20260509155608 79 335 1.0 1.0 0.00 0.00 0.00 77 1012.0
20260509155105 78 352 4.0 6.0 0.00 0.00 0.00 77 1012.1
20260509154600 78 13 4.0 5.0 0.00 0.00 0.00 77 1012.1
20260509154058 78 284 2.0 3.0 0.00 0.00 0.00 78 1012.0
20260509153555 77 17 4.0 6.0 0.00 0.00 0.00 79 1012.0
20260509153052 77 334 2.0 3.0 0.00 0.00 0.00 79 1012.0
20260509152548 77 270 3.0 5.0 0.00 0.00 0.00 78 1012.0
20260509152045 77 272 1.0 1.0 0.00 0.00 0.00 79 1011.8
20260509151541 77 280 3.0 5.0 0.00 0.00 0.00 80 1012.0
20260509151039 77 64 2.0 3.0 0.00 0.00 0.00 80 1012.0
20260509150536 76 131 1.0 1.0 0.00 0.00 0.00 81 1012.0
20260509150035 77 302 2.0 3.0 0.00 0.00 0.00 79 1012.2
20260509145530 77 304 3.0 5.0 0.00 0.00 0.00 80 1012.1
20260509145025 76 286 3.0 5.0 0.00 0.00 0.00 81 1012.0
20260509144523 76 329 3.0 3.0 0.00 0.00 0.00 82 1012.3
20260509144020 75 278 3.0 3.0 0.00 0.00 0.00 84 1012.4
20260509143517 75 261 2.0 2.0 0.00 0.00 0.00 85 1012.0
20260509143015 74 335 4.0 5.0 0.00 0.00 0.00 85 1012.2
20260509142510 75 285 3.0 3.0 0.00 0.00 0.00 85 1011.9
20260509142005 74 259 1.0 1.0 0.00 0.00 0.00 86 1011.9
20260509141502 74 254 0.0 0.0 0.00 0.00 0.00 86 1012.0
20260509140959 74 291 3.0 3.0 0.00 0.00 0.00 86 1011.9
20260509140455 73 228 1.0 1.0 0.00 0.00 0.00 88 1011.8
20260509135954 73 290 4.0 6.0 0.00 0.00 0.00 89 1011.8
20260509135451 72 322 2.0 3.0 0.00 0.00 0.00 89 1011.7
20260509134948 72 285 2.0 2.0 0.00 0.00 0.00 90 1011.8
20260509134445 72 300 1.0 2.0 0.00 0.00 0.00 90 1011.8
20260509133943 72 336 5.0 7.0 0.00 0.00 0.00 91 1011.7
20260509133439 71 274 3.0 3.0 0.00 0.00 0.00 92 1011.6
20260509132937 71 326 3.0 3.0 0.00 0.00 0.00 93 1011.6
20260509132435 71 285 1.0 2.0 0.00 0.00 0.00 93 1011.4
20260509131932 71 282 3.0 6.0 0.00 0.00 0.00 94 1011.5
20260509131429 71 273 5.0 6.0 0.00 0.00 0.00 95 1011.4
20260509130926 70 301 3.0 3.0 0.00 0.00 0.00 95 1011.6
20260509130421 70 318 1.0 2.0 0.00 0.00 0.00 96 1011.6
20260509125918 70 249 1.0 2.0 0.00 0.00 0.00 96 1011.5
20260509125415 69 284 1.0 1.0 0.00 0.00 0.00 97 1011.4
20260509124911 69 272 3.0 3.0 0.00 0.00 0.00 97 1011.5
20260509124408 69 294 1.0 3.0 0.00 0.00 0.00 98 1011.3
20260509123906 69 250 0.0 0.0 0.00 0.00 0.00 98 1011.6
20260509123403 69 233 0.0 0.0 0.00 0.00 0.00 98 1011.3
20260509122858 69 188 0.0 0.0 0.00 0.00 0.00 98 1011.4
20260509122355 68 188 0.0 0.0 0.00 0.00 0.00 98 1011.5
20260509121852 68 187 0.0 0.0 0.00 0.00 0.00 98 1011.6
20260509121349 68 187 0.0 0.0 0.00 0.00 0.00 97 1011.3
20260509120848 68 187 0.0 0.0 0.00 0.00 0.00 97 1011.5
20260509120345 68 187 0.0 0.0 0.00 0.00 0.00 97 1011.5
20260509115843 68 187 0.0 0.0 0.00 0.00 0.00 97 1011.5
20260509115340 68 187 0.0 0.0 0.00 0.00 0.00 97 1011.6
20260509114838 68 187 0.0 0.0 0.00 0.00 0.00 97 1011.3
20260509114336 68 187 0.0 0.0 0.00 0.00 0.00 96 1011.0
20260509113835 69 186 0.0 0.0 0.00 0.00 0.00 96 1011.0
20260509113331 69 188 0.0 0.0 0.00 0.00 0.00 96 1011.1
20260509112828 69 189 0.0 0.0 0.00 0.00 0.00 96 1010.8
20260509112325 69 189 0.0 0.0 0.00 0.00 0.00 96 1010.7
20260509111822 69 188 0.0 0.0 0.00 0.00 0.00 95 1010.7
20260509111319 69 188 0.0 0.0 0.00 0.00 0.00 95 1010.7
20260509110817 70 181 1.0 1.0 0.00 0.00 0.00 95 1010.5
20260509110313 70 190 1.0 1.0 0.00 0.00 0.00 95 1010.6
20260509105811 70 191 1.0 1.0 0.00 0.00 0.00 95 1010.4
20260509105309 70 195 0.0 0.0 0.00 0.00 0.00 95 1010.4
20260509104805 70 197 0.0 0.0 0.00 0.00 0.00 95 1010.4
20260509104302 70 196 0.0 0.0 0.00 0.00 0.00 95 1010.5
20260509103800 70 196 0.0 0.0 0.00 0.00 0.00 95 1010.5
20260509103257 70 196 0.0 0.0 0.00 0.00 0.00 95 1010.6
20260509102756 70 196 0.0 0.0 0.00 0.00 0.00 95 1010.7
20260509102253 70 197 0.0 0.0 0.00 0.00 0.00 95 1010.6
20260509101749 70 197 0.0 0.0 0.00 0.00 0.00 95 1010.4
20260509101245 70 240 0.0 0.0 0.00 0.00 0.00 95 1010.3
20260509100742 70 245 0.0 0.0 0.00 0.00 0.00 95 1010.4
20260509100240 70 246 0.0 0.0 0.00 0.00 0.00 95 1010.3
20260509095736 70 237 0.0 0.0 0.00 0.00 0.00 95 1010.4
20260509095234 69 234 0.0 0.0 0.00 0.00 0.00 95 1010.4
20260509094731 69 234 0.0 0.0 0.00 0.00 0.00 95 1010.0
20260509094227 69 234 0.0 0.0 0.00 0.00 0.00 95 1010.0
20260509093725 69 234 0.0 0.0 0.00 0.00 0.00 95 1010.0
20260509093222 69 235 0.0 0.0 0.00 0.00 0.00 95 1009.8
20260509092720 69 219 0.0 0.0 0.00 0.00 0.00 95 1009.7
20260509092218 69 181 0.0 0.0 0.00 0.00 0.00 95 1009.2
20260509091716 69 154 2.0 2.0 0.00 0.00 0.00 95 1008.9
20260509091212 69 161 0.0 1.0 0.00 0.00 0.00 94 1008.9
20260509090710 70 176 0.0 0.0 0.00 0.00 0.00 94 1008.7
20260509090207 70 148 2.0 2.0 0.00 0.00 0.00 95 1008.4
20260509085705 70 88 2.0 3.0 0.00 0.00 0.00 94 1008.7
20260509085201 70 117 4.0 5.0 0.00 0.00 0.00 94 1008.8
20260509084658 70 187 3.0 3.0 0.00 0.00 0.00 94 1009.1
20260509084154 70 202 2.0 3.0 0.00 0.00 0.00 94 1009.4
20260509083653 70 175 4.0 6.0 0.00 0.00 0.00 94 1009.3
20260509083148 70 191 3.0 5.0 0.00 0.00 0.00 94 1009.5
20260509082646 70 184 1.0 2.0 0.00 0.00 0.00 94 1009.7
20260509082142 70 184 1.0 2.0 0.00 0.00 0.00 93 1010.0
20260509081639 70 179 1.0 1.0 0.00 0.00 0.00 93 1010.3
20260509081137 70 183 4.0 6.0 0.00 0.00 0.00 93 1010.9
20260509080635 70 138 2.0 2.0 0.00 0.00 0.00 92 1010.7
20260509080132 71 165 1.0 1.0 0.00 0.00 0.00 92 1010.8
20260509075630 71 155 2.0 2.0 0.00 0.00 0.00 92 1011.0
20260509075128 71 190 1.0 1.0 0.00 0.00 0.00 92 1011.2
20260509074624 71 175 0.0 1.0 0.00 0.00 0.00 91 1011.3
20260509074121 71 184 0.0 1.0 0.00 0.00 0.00 91 1011.5
20260509073618 71 186 0.0 0.0 0.00 0.00 0.00 91 1011.4
20260509073114 71 191 0.0 1.0 0.00 0.00 0.00 91 1012.0
20260509072611 71 184 2.0 3.0 0.00 0.00 0.00 91 1011.6
20260509072108 71 181 3.0 3.0 0.00 0.00 0.00 92 1011.9
20260509071604 70 196 1.0 1.0 0.00 0.00 0.00 92 1012.1
20260509071102 70 208 1.0 1.0 0.00 0.00 0.00 92 1012.1
20260509070559 70 227 0.0 1.0 0.00 0.00 0.00 92 1012.1
20260509070055 70 213 0.0 0.0 0.00 0.00 0.00 92 1011.8
20260509065550 70 209 0.0 0.0 0.00 0.00 0.00 92 1011.8
20260509065047 70 212 1.0 1.0 0.00 0.00 0.00 92 1011.5
20260509064544 70 200 0.0 0.0 0.00 0.00 0.00 92 1011.3
20260509064042 70 182 2.0 2.0 0.00 0.00 0.00 92 1011.2
20260509063537 70 168 2.0 2.0 0.00 0.00 0.00 92 1011.2
20260509063035 70 202 0.0 0.0 0.00 0.00 0.00 92 1011.4
20260509062532 70 188 0.0 0.0 0.00 0.00 0.00 92 1011.4
20260509062030 70 191 0.0 0.0 0.00 0.00 0.00 91 1011.7
20260509061526 70 203 0.0 0.0 0.00 0.00 0.00 91 1011.5
20260509061024 70 180 1.0 1.0 0.00 0.00 0.00 91 1011.7
20260509060521 70 204 0.0 0.0 0.00 0.00 0.00 91 1012.2
20260509060017 70 194 0.0 0.0 0.00 0.00 0.00 90 1012.2
20260509055512 71 198 0.0 1.0 0.00 0.00 0.00 90 1012.0
20260509055009 71 229 0.0 0.0 0.00 0.00 0.00 89 1012.5
20260509054505 71 228 1.0 1.0 0.00 0.00 0.00 88 1012.2
20260509054004 71 189 1.0 1.0 0.00 0.00 0.00 88 1012.0
20260509053502 71 177 2.0 2.0 0.00 0.00 0.00 88 1012.4
20260509052958 71 235 0.0 1.0 0.00 0.00 0.00 88 1012.7